Powrót do katalogu

ONEWEB-0513

AktywnyŁącznośćPO
NORAD 54131·PAYLOAD·🇬🇧 United Kingdom

Wystrzelony Oct 22, 2022 z Satish Dhawan Space Centre

Loading…

Następne Przeloty (najbliższe 24 godziny)

TLE

ŚwieżeSource: CelesTrak SupGP

Epoka: Sep 14, 2026, 14:35 UTC

1 54131C 22138U   26257.60812913 -.00000860  00000+0 -21332-2 0  2577
2 54131  87.9111 287.0887 0002786  82.6378   6.3462 13.20264156    12

Śledź ONEWEB-0513 w czasie rzeczywistym z AllMySat

Download on the App Store